This is the latest recevied weather packets stored in our database for station/object KU9TRY. If no packets are shown the sender has not sent any weather packets the latest 10 day(s).
| Time | Temp. | Humidity | Pressure | Rain* | Wind** | Luminosity | Snow |
|---|---|---|---|---|---|---|---|
| 1777703675 | 6.67° C | 85% | 1016.8 hPa | 0 mm | - | 0 W/m² | - |
| 1777703372 | 6.67° C | 86% | 1017 hPa | 0 mm | - | 0 W/m² | - |
| 1777703069 | 6.67° C | 84% | 1016.9 hPa | 0 mm | - | 0 W/m² | - |
| 1777702768 | 6.67° C | 84% | 1017.1 hPa | 0 mm | - | 0 W/m² | - |
| 1777702466 | 6.67° C | 84% | 1017 hPa | 0 mm | - | 0 W/m² | - |
| 1777702161 | 6.67° C | 84% | 1017.1 hPa | 0 mm | - | 0 W/m² | - |
| 1777701856 | 6.67° C | 83% | 1017.2 hPa | 0 mm | - | 0 W/m² | - |
| 1777701554 | 6.67° C | 82% | 1017.5 hPa | 0 mm | - | 0 W/m² | - |
| 1777701252 | 7.22° C | 81% | 1017.4 hPa | 0 mm | - | 0 W/m² | - |
| 1777700952 | 7.22° C | 80% | 1017.1 hPa | 0 mm | - | 0 W/m² | - |
| 1777700649 | 7.22° C | 79% | 1017.2 hPa | 0 mm | - | 0 W/m² | - |
| 1777700346 | 8.33° C | 77% | 1017.2 hPa | 0 mm | - | 0 W/m² | - |
| 1777700043 | 8.33° C | 77% | 1016.8 hPa | 0 mm | - | 0 W/m² | - |
| 1777699741 | 8.89° C | 74% | 1016.9 hPa | 0 mm | - | 0 W/m² | - |
| 1777699439 | 8.89° C | 72% | 1016.7 hPa | 0 mm | - | 0 W/m² | - |
| 1777699136 | 9.44° C | 70% | 1016.6 hPa | 0 mm | - | 0 W/m² | - |
| 1777698835 | 10.56° C | 68% | 1016.7 hPa | 0 mm | - | 0 W/m² | - |
| 1777698531 | 10.56° C | 60% | 1016.6 hPa | 0 mm | - | 0 W/m² | - |
| 1777698227 | 10° C | 60% | 1016.5 hPa | 0 mm | - | 0 W/m² | - |
| 1777697924 | 10.56° C | 61% | 1016.7 hPa | 0 mm | - | 0 W/m² | - |
| 1777697621 | 10.56° C | 61% | 1016.7 hPa | 0 mm | - | 0 W/m² | - |
| 1777697318 | 10° C | 62% | 1016.6 hPa | 0 mm | - | 0 W/m² | - |
| 1777697014 | 10.56° C | 68% | 1016.6 hPa | 0 mm | - | 0 W/m² | - |
| 1777696712 | 10° C | 64% | 1016.8 hPa | 0 mm | - | 0 W/m² | - |
| 1777696409 | 9.44° C | 74% | 1016.7 hPa | 0 mm | - | 0 W/m² | - |
* Rain latest hour (hover to see other rain measurements)
** Current wind speed in m/s (hover to see current wind gust speed)